Location: Austin
(30.3000°N, 97.7500°W)
Time: 07:15:36
(UTC-05:00)

ISS - Pass Details

Date: 16 June 2025
Orbit: 414 x 417 km, 51.6° (Epoch: 08 July)

Event Time Altitude Azimuth Distance (km) Brightness Sun altitude
Exits shadow 05:17:22 - 170° (S) 1,682 -1.0 -13.8°
Reaches altitude 10° 05:18:08 10° 160° (SSE) 1,482 -1.2 -13.7°
Maximum altitude 05:20:00 14° 126° (SE) 1,255 -1.1 -13.4°
Drops below altitude 10° 05:21:52 10° 92° (E) 1,489 -0.2 -13.0°
Sets 05:24:41 0° 66° (ENE) 2,357 1.8 -12.6°
